DMSP 5D-2 F13 DEB, 40437

Orbit data source: Space-Track

DMSP 5D-2 F13 DEB, 40437 is space debris in SSO originally from a launch on Fri, 24 Mar 1995 UTC launched from the Air Force Western Test Range (AFWTR). Debris objects in space refer to the collection of defunct objects orbiting the Earth. Examples of debris include non-operational satellites, rocket bodies, and fragments generated from explosions, collisions, or faulty payload assembly.

Loading next visibility...
DMSP 5D-2 F13 DEB details
Identifier
40437, 1995-015AP
Orbit
SSO
Last TLE update13 hours ago
Origin
Flag of USUSAF SMC (US)
ManufacturerUnknown
MissionSpacecraft
Bus & MotorUnknown
MassUnknown
Launch date (UTC)
1995-03-24 (30 years ago)
Launch vehicleUnknown
Launch site
Air Force Western Test Range (AFWTR)
Object type
Payload
Rocket body
Debris
Shape & HBRUnknown
Radar Cross SectionSmall (<0.1 m²)

Expand to show TLE details & history

TLE from 13 hours ago
0 DMSP 5D-2 F13 DEB
1 40437U 95015AP  24348.59469420  .00022366  00000-0  56912-2 0  9992
2 40437  98.6720  29.1276 0017234 358.8236   1.2914 14.50556808509532
Epoch: 2024-12-13T14:16Z
Definitive object data (Epoch: 2024-12-13T14:16:21.578Z)
Latitude-0.00005°
Longitude92.27927°
Altitude714.549 km
Speed7.505 km/s
True Right ascension01h 56m 30s
True Declination0° 00' 00"
Sunlit
Object was in full shadow at TLE epoch
Visualization TLE readout
Latitude36.88981°
Longitude86.31693°
Altitude719.435 km
Speed7.504 km/s
Apparent Right ascension22h 30m 41s
Apparent Declination7° 47' 44"
Sunlit
Object is in full shadow
Visualization observer readout
Local Sidereal Time02:13:59
Azimuth252.842° W
Elevation30.923°
Doppler factor1
Orbital elements
Apogee altitude733.181 km
Perigee altitude708.712 km
Semi-major axis7,099.084 km
Eccentricity0.0017234
Inclination98.672°
RAAN29.1276°
Arg. of periapsis358.8236°
True anomaly1.29586°
Mean anomaly1.2914°
Eccentric anomaly1.29363°
Mean motion3.62861 °/min
BSTAR0.0056912
Orbital period99.21 mins
Loading maneuver chart data...

DMSP 5D-2 F13 DEB Visibility forecast

Observer location: undefined°, undefined

Span
Click to sort rows by Start time (UTC) header in descending order
Start Az.
Max El. time (UTC)
Max El. Az.
Max El.
End time (UTC)
End Az.
4 mins2024-12-14 03:41:13.150Z252.304° W2024-12-14 03:41:13.150Z252.304° W27.029°2024-12-14 03:45:13.150Z320.745° NNW
8 mins2024-12-14 15:41:13.150Z20.379° NNE2024-12-14 15:45:13.150Z136.984° SSE42.771°2024-12-14 15:49:13.150Z186.311° SSW
8 mins2024-12-15 02:49:13.150Z161.063° S2024-12-15 02:52:13.150Z141.451° SSE43.365°2024-12-15 02:57:13.150Z348.552° N
|